Wind_Speed
4 11 10 7 7 6 4 2 1 3 6 7 7 5 5 4 4 5 8 9 4 5 11 14 15 13 12 11 10 10 10 9 8 7 6 5 5 6 6 6 9 14 16 17 15 14 16 17 18 17 16 15 13 13 13 13 12 10 10 10 11 12 12 12 12 13 14 13 13 13 13 14 15 15 14 13 12 12 12 11 11 11 11 12 13 13
6 10 8 6 5 3 2 2 1 5 8 9 7 4 3 3 2 3 6 8 8 2 5 9 11 9 9 9 9 9 8 7 7 7 6 7 8 8 9 7 8 12 17 20 19 17 17 18 18 18 18 16 15 15 15 15 14 13 12 12 12 13 13 13 14 15 15 15 15 14 15 16 16 16 16 16 15 15 14 13 13 12 12 12 12 13
8 7 6 5 3 3 2 1 3 5 8 9 7 4 1 2 2 3 4 6 7 5 3 5 6 7 8 9 9 9 9 9 10 10 9 10 11 11 11 9 9 12 17 20 22 21 19 19 19 20 20 18 16 16 16 16 16 15 13 13 13 14 14 15 16 16 16 16 16 16 17 17 18 18 18 18 18 17 16 15 13 13 12 12 12 13
6 5 5 3 2 3 2 3 4 6 8 8 7 5 2 0 1 1 2 3 4 4 2 4 5 8 10 11 12 12 12 13 13 13 13 13 12 12 13 12 12 13 15 19 22 22 21 20 20 20 22 21 19 18 18 17 17 16 15 14 14 14 15 16 17 17 17 17 17 17 17 17 17 17 18 18 17 17 16 15 14 13 13 13 14 14
3 3 4 2 3 3 2 4 5 6 6 6 6 4 2 0 1 1 2 2 2 3 3 3 5 10 12 12 12 13 12 12 12 13 13 11 11 13 14 14 14 14 15 17 20 21 21 21 21 21 23 23 21 20 19 19 18 17 16 15 15 15 15 16 17 17 17 16 16 16 16 15 15 15 16 16 16 16 15 15 15 15 16 16 16 17
4 4 5 5 4 3 3 5 6 5 5 4 3 1 1 2 2 2 1 2 3 4 4 5 5 8 13 13 12 12 11 10 11 12 12 10 11 12 12 11 13 15 15 15 18 20 21 22 22 22 23 23 23 22 21 20 19 18 17 17 17 16 16 16 17 17 16 15 15 15 15 14 13 13 14 14 15 15 16 16 17 17 17 17 18 18
5 5 6 7 4 3 5 6 6 6 6 4 2 1 1 2 3 2 2 3 4 4 5 7 6 6 10 12 12 13 12 11 13 13 12 11 10 10 10 11 13 15 15 13 15 18 19 20 21 22 23 23 24 24 23 22 21 20 18 18 18 18 17 17 17 16 15 14 14 13 13 13 13 13 13 14 15 16 16 16 17 16 16 16 17 17
5 5 6 7 6 5 6 6 6 7 7 5 3 3 5 6 7 8 7 5 4 4 5 8 10 9 10 12 13 14 15 15 16 15 14 13 9 8 9 11 13 14 16 15 14 16 17 18 19 21 22 23 24 25 25 24 23 22 20 19 20 19 18 17 16 16 15 14 13 13 12 12 13 13 13 14 14 14 14 14 14 14 14 14 15 16
5 6 6 7 8 7 6 5 5 6 7 5 4 6 9 10 10 11 9 7 6 5 6 9 11 8 10 14 13 14 17 17 17 16 15 12 9 8 9 11 12 13 16 16 15 15 15 16 18 20 22 24 24 25 25 25 24 23 22 20 21 21 19 18 17 16 15 14 13 13 12 12 12 12 12 12 11 11 11 12 12 12 13 13 14 15
6 7 8 8 10 9 7 6 6 7 7 5 5 8 9 8 9 9 8 8 7 6 8 10 12 8 8 13 14 13 16 16 15 14 12 11 9 9 11 12 13 14 16 16 16 15 15 16 17 20 22 23 24 25 25 25 24 24 23 22 22 23 21 19 18 16 16 15 14 13 12 11 11 11 11 10 9 9 9 10 11 11 12 13 13 14
10 9 9 10 12 11 9 8 8 8 7 7 7 7 6 6 7 7 8 8 5 6 8 9 12 9 6 9 13 14 14 13 12 12 11 10 10 9 10 11 13 14 16 16 17 17 16 17 18 20 22 23 25 25 25 24 24 24 25 24 24 24 22 21 19 17 17 16 15 14 13 12 11 10 9 8 8 8 8 8 9 10 11 13 14 15
10 9 9 9 10 11 11 11 10 10 9 8 6 3 2 3 5 6 7 6 3 4 6 7 9 9 7 9 12 13 12 12 12 13 12 12 12 10 9 9 10 13 16 17 18 18 18 19 19 20 21 22 24 24 25 25 25 25 25 25 25 25 24 22 20 19 18 16 15 14 13 13 11 10 9 8 7 8 8 8 8 9 11 12 13 15
9 10 9 8 8 9 11 12 11 11 10 9 7 4 2 1 1 3 4 3 4 4 5 6 6 7 12 15 15 14 14 12 12 12 13 14 14 13 11 10 11 14 16 18 19 19 19 19 20 20 21 21 22 24 25 25 26 26 25 25 26 26 25 24 22 20 19 17 15 14 14 13 13 12 11 10 9 9 9 9 9 10 11 12 13 15
8 9 10 10 9 8 10 13 13 11 10 11 10 6 3 2 2 2 3 2 5 6 7 9 6 6 12 14 12 12 13 12 13 13 14 14 14 14 13 13 14 15 17 18 19 19 19 19 20 21 20 21 23 25 25 24 25 26 25 25 27 27 26 25 23 22 21 19 18 17 16 15 15 14 13 12 12 11 11 11 12 12 13 13 14 15
8 7 6 7 7 5 6 9 10 9 8 11 11 8 7 5 2 3 4 3 4 4 7 9 5 4 6 6 7 9 10 11 14 15 15 15 14 13 13 15 16 16 16 17 18 18 18 19 20 21 21 21 23 25 25 24 24 25 25 25 27 28 28 27 25 24 23 22 20 19 19 18 18 17 16 15 15 14 14 14 14 15 15 15 15 16
9 9 6 7 7 5 6 7 9 9 8 9 11 9 8 7 6 5 4 5 5 2 4 8 8 9 11 12 13 13 12 13 13 15 15 15 13 12 12 13 14 14 14 15 16 16 17 19 21 22 22 23 24 25 25 24 24 25 26 26 27 29 29 28 27 25 24 24 23 22 21 21 20 19 19 19 19 18 17 17 17 17 18 18 18 17
9 8 6 7 8 8 9 9 10 11 9 8 9 10 8 7 8 7 4 4 3 2 4 6 10 15 16 16 14 11 10 11 11 12 13 12 12 12 12 12 13 13 13 14 15 16 17 19 21 21 22 22 23 24 24 24 24 25 27 28 28 29 30 30 28 27 26 26 26 25 24 23 23 22 22 22 22 22 21 20 20 20 20 20 20 20
11 12 9 8 9 10 11 11 12 13 12 9 9 9 7 6 7 7 3 1 1 1 4 7 12 14 11 9 10 8 8 8 9 10 12 12 12 12 12 12 13 14 14 14 15 15 16 17 17 17 17 18 20 22 23 24 24 25 27 29 29 29 31 31 30 29 29 29 28 27 27 26 25 26 26 25 25 24 24 23 23 23 23 23 23 22
12 13 11 10 11 12 11 11 12 14 14 13 11 9 8 6 6 7 4 0 1 2 3 5 10 13 14 12 11 9 8 8 7 9 10 10 11 11 12 12 13 13 13 13 13 13 13 13 13 13 13 13 15 18 20 22 24 25 27 29 29 29 31 33 33 32 32 31 30 30 30 29 29 29 28 28 28 27 27 26 26 25 24 24 25 25
13 12 9 8 10 11 13 13 13 14 15 14 13 11 11 10 8 8 7 4 3 2 2 3 4 9 14 14 11 9 10 10 9 10 10 11 11 12 12 12 13 14 14 12 12 11 11 11 11 11 11 11 12 14 16 18 21 23 25 28 31 32 32 33 34 34 34 34 33 33 33 33 32 31 31 31 31 30 29 28 27 26 25 26 27 27
12 13 12 10 9 11 13 14 13 13 13 14 15 14 14 13 9 8 9 9 6 3 3 2 3 10 15 12 11 11 11 11 10 10 11 12 13 14 14 13 14 15 15 14 12 12 12 12 12 13 13 13 14 14 15 16 18 20 22 25 30 34 36 35 35 35 36 37 36 36 37 36 35 34 32 33 33 32 30 28 27 27 27 27 27 27
10 13 15 14 13 14 15 13 12 11 11 13 15 15 16 15 11 7 5 10 12 8 6 3 4 14 19 14 13 13 11 10 10 10 12 12 12 13 14 15 15 16 16 15 14 14 14 14 15 15 15 15 16 17 17 17 17 18 19 21 25 30 36 38 38 37 37 38 39 39 39 38 37 35 34 34 34 32 30 28 28 28 28 27 28 28
10 12 14 15 15 15 14 13 13 13 12 14 14 16 17 16 15 11 6 9 13 12 12 8 5 14 20 16 14 13 11 11 11 12 13 12 10 11 12 14 16 16 16 15 15 16 16 17 17 17 17 17 18 19 19 20 19 18 18 19 22 26 32 36 38 38 38 39 41 41 41 40 38 36 36 36 33 31 29 29 29 29 29 28 29 29
9 10 12 12 13 15 16 17 17 15 14 16 17 18 19 18 18 16 13 14 12 11 14 9 4 12 20 17 16 14 12 13 12 12 13 12 12 12 12 14 15 16 15 14 15 17 18 19 18 18 18 18 19 21 22 22 22 22 21 21 22 24 27 31 36 39 41 42 43 42 44 43 39 36 35 35 33 30 29 30 30 29 29 29 30 30
9 9 9 8 7 9 11 13 15 16 15 17 19 19 19 20 20 18 18 17 12 12 17 11 8 17 22 19 18 16 14 13 11 11 13 14 15 16 15 16 15 16 16 15 16 17 18 19 19 19 19 19 21 23 24 25 25 25 24 24 24 24 26 29 32 36 40 42 42 41 41 42 40 37 33 31 32 32 31 31 30 28 29 29 30 30
12 11 11 8 5 5 6 7 10 13 14 15 17 17 18 20 20 19 18 15 12 16 20 17 17 24 23 18 18 18 16 16 14 14 16 17 18 20 19 19 18 19 18 17 18 18 19 20 21 20 20 22 23 24 26 27 27 27 27 26 26 27 28 29 31 34 38 41 40 37 36 35 36 38 34 31 32 35 35 32 28 27 28 29 30 30
14 15 15 15 13 13 12 12 12 13 15 16 17 16 15 15 18 19 17 16 19 21 22 22 25 27 24 20 20 21 21 22 21 20 20 21 22 23 22 21 22 22 21 21 21 21 21 21 21 22 23 24 24 24 25 27 29 30 30 28 29 30 31 31 32 36 41 39 35 34 34 33 33 35 35 33 33 34 33 30 26 26 28 28 29 29
17 16 17 18 18 17 17 16 16 17 19 20 20 19 17 15 17 20 20 21 23 20 21 25 27 27 28 26 25 27 28 27 26 26 25 25 24 24 22 23 26 26 25 24 23 23 22 23 23 24 26 26 24 23 23 25 27 29 30 31 32 32 32 32 32 35 37 33 26 26 29 30 30 31 32 32 31 30 29 26 25 26 27 27 27 27
18 17 17 17 18 18 17 16 17 18 19 20 20 21 21 18 19 22 23 25 25 24 27 31 32 33 35 32 31 33 33 31 32 31 30 27 25 25 23 24 27 28 28 26 25 24 24 24 25 26 27 26 24 22 21 22 24 26 28 30 30 29 29 29 27 28 29 26 22 21 23 25 27 27 29 29 27 28 27 24 24 25 25 25 25 25
16 15 14 14 14 15 16 17 18 19 21 22 22 22 23 23 23 25 27 27 29 32 34 36 37 41 40 36 36 36 32 31 31 30 30 28 26 26 25 25 26 28 30 30 28 28 26 24 24 26 27 25 22 21 20 20 22 23 24 25 25 24 23 23 22 22 23 23 22 21 22 24 25 26 26 26 25 26 25 23 23 23 22 22 23 24
13 12 12 12 14 16 16 17 18 19 20 22 22 21 22 24 26 28 29 30 31 35 37 37 40 44 42 38 38 37 32 31 29 26 25 24 22 24 26 27 27 28 30 31 30 28 26 24 24 24 24 23 21 19 18 17 18 20 21 21 21 19 18 18 19 19 19 20 20 21 22 22 23 24 24 24 24 23 23 23 23 21 20 20 21 21
13 13 13 15 17 19 19 19 20 22 25 26 26 24 23 26 28 29 31 32 33 37 40 41 44 46 42 37 36 35 31 29 27 25 23 22 22 24 26 27 27 27 28 29 29 28 27 25 23 23 22 21 18 17 15 15 15 16 17 17 16 15 15 16 17 17 17 16 17 19 20 21 22 23 23 23 22 21 22 23 21 18 17 17 18 20
15 15 15 16 16 17 18 19 20 21 21 22 24 23 22 24 25 28 31 32 31 33 37 40 43 42 38 34 35 36 32 28 27 26 23 21 21 22 23 25 26 27 27 27 28 28 26 24 22 21 20 18 17 15 15 15 15 15 15 15 15 14 14 14 15 15 15 15 16 18 19 20 21 21 21 21 21 21 21 22 19 17 16 16 18 20
17 16 16 16 16 17 17 16 16 16 14 15 19 21 21 22 23 27 30 30 29 31 34 37 38 35 33 33 33 32 28 24 25 26 25 23 23 23 23 23 24 25 26 26 25 24 22 21 21 20 17 16 16 16 15 15 15 15 16 17 17 16 14 13 14 14 14 15 16 17 18 19 19 19 19 20 21 22 22 22 20 18 16 18 20 22
18 18 18 19 19 19 18 12 8 9 10 12 17 19 21 24 23 24 28 30 31 33 34 35 34 30 29 30 27 25 24 23 24 26 26 25 25 25 25 24 23 24 26 25 22 20 19 20 19 18 16 15 15 15 15 16 16 16 17 18 18 19 18 17 16 15 14 14 16 17 19 19 19 19 19 20 21 22 23 23 22 19 18 19 21 24
19 19 20 21 20 17 12 9 8 13 19 21 25 25 25 26 22 22 28 29 27 28 31 32 30 26 24 25 23 22 25 26 27 27 26 25 25 26 27 26 24 23 25 24 22 20 19 18 18 16 16 16 15 15 16 17 18 19 20 20 21 21 21 21 21 18 16 15 15 16 17 18 19 19 19 19 20 21 22 23 23 20 20 21 22 25
17 18 19 22 21 17 15 16 20 27 27 20 18 18 18 19 18 20 28 29 25 24 27 26 24 23 23 26 26 25 26 28 28 27 24 23 23 22 24 25 22 22 22 22 21 20 19 18 17 17 17 17 17 17 18 19 21 22 22 23 24 24 24 25 24 22 20 17 16 16 17 17 18 18 18 19 21 21 22 24 22 19 19 21 23 26
14 16 17 20 20 18 18 18 17 18 14 9 11 15 15 15 14 17 26 30 26 25 26 25 25 27 29 30 30 28 27 28 28 26 23 22 20 18 18 20 20 20 19 18 18 18 18 18 18 19 20 20 19 19 20 21 22 24 24 25 26 26 27 27 26 25 23 20 17 16 17 17 18 18 18 19 19 19 21 21 18 17 19 21 23 26
13 15 17 20 21 17 16 14 11 11 12 12 16 20 18 17 16 16 22 26 23 22 25 25 25 25 24 21 21 22 23 25 26 24 21 19 17 14 13 15 17 19 18 17 17 17 18 19 20 20 21 21 21 20 21 21 23 24 26 27 28 29 29 29 28 26 24 22 20 17 16 17 18 18 19 19 20 20 21 20 17 17 20 22 24 27
14 15 18 22 24 22 20 19 19 19 19 17 18 19 18 17 15 12 12 17 20 19 20 21 21 18 14 12 14 16 17 18 19 18 17 16 15 12 10 12 15 17 17 17 17 17 17 18 18 19 20 21 21 21 22 23 25 26 28 29 30 31 31 29 29 27 25 23 22 20 17 17 18 19 20 22 23 24 24 22 18 17 20 22 25 28
14 15 18 20 22 23 23 23 24 25 24 24 25 26 25 24 20 17 16 20 24 21 17 19 19 17 13 11 12 13 14 16 18 17 16 16 14 11 9 10 13 15 16 16 16 15 15 16 17 19 21 22 22 23 25 26 27 28 29 30 30 30 29 27 27 27 26 25 24 22 19 18 19 20 21 22 23 25 25 21 17 18 21 23 26 29
14 15 17 19 19 20 22 23 23 23 24 25 27 28 29 27 24 24 26 28 28 26 22 21 21 20 16 14 14 16 18 20 21 19 17 16 14 10 9 9 11 13 14 15 15 15 16 17 18 19 20 22 23 25 26 26 27 27 28 29 29 28 26 25 25 25 26 26 25 23 21 22 22 22 21 21 22 23 22 19 18 20 23 24 26 28
17 15 15 17 17 16 17 16 14 15 18 21 21 22 22 22 23 27 29 28 26 24 22 21 22 22 20 19 19 19 19 20 20 18 17 17 14 11 9 9 10 11 13 14 15 16 17 18 19 20 21 22 23 24 25 25 26 26 27 28 28 27 24 22 22 23 25 27 27 25 23 24 23 23 22 21 21 21 19 19 21 23 23 23 25 26
19 18 18 18 17 16 16 14 11 14 16 17 18 17 15 17 20 23 25 25 24 23 21 21 21 20 18 18 19 18 18 18 18 17 17 16 14 11 11 11 11 12 14 15 16 17 18 19 20 20 20 21 21 22 24 25 26 25 25 26 27 26 22 21 22 24 25 27 28 26 25 23 23 24 24 23 22 21 20 21 22 23 22 22 23 25
16 17 17 17 17 17 18 17 15 18 19 20 21 20 18 18 19 18 19 21 21 22 22 20 17 16 16 18 19 18 17 18 19 18 17 16 15 14 14 14 14 15 16 16 16 16 17 18 18 18 18 18 20 21 23 24 23 23 23 23 24 24 21 20 22 25 27 29 29 27 25 25 25 25 24 23 23 22 21 21 21 20 20 20 21 23
16 15 15 17 18 19 21 21 20 20 20 19 18 16 16 17 17 17 16 15 14 15 15 13 12 13 15 17 19 18 18 19 21 22 19 18 18 18 18 17 17 17 17 16 14 14 14 15 15 16 17 17 19 20 21 20 19 19 19 20 21 21 20 19 21 23 25 28 29 28 28 27 26 24 23 22 22 20 18 17 17 17 18 20 21 23
20 20 20 21 22 21 22 21 19 18 18 18 19 20 20 19 17 17 17 14 12 11 11 10 11 14 17 19 19 18 18 20 23 25 23 21 20 21 21 21 20 20 19 17 15 13 12 11 12 13 15 16 17 17 17 16 15 15 15 16 17 18 17 16 16 18 20 22 24 26 27 26 25 23 21 21 20 17 14 14 15 17 19 20 22 23
17 18 18 18 20 21 22 20 18 17 19 21 23 23 22 19 18 19 20 19 16 14 13 14 16 18 19 20 20 19 19 20 22 24 26 24 22 24 27 27 24 22 20 19 18 16 13 11 11 11 13 14 15 15 14 13 13 13 13 13 14 14 14 13 12 13 14 15 17 19 20 21 20 19 19 18 16 14 12 13 16 18 20 21 22 25
19 20 20 20 24 27 28 25 22 23 24 23 21 21 20 20 21 21 21 21 20 19 17 18 19 21 22 22 21 21 20 20 21 22 24 25 25 29 31 28 23 21 21 22 21 20 16 13 12 12 12 13 14 14 13 12 12 11 10 10 10 11 12 12 12 12 12 12 13 14 15 16 17 17 16 15 13 13 14 15 18 20 21 22 24 28
26 26 25 26 30 32 30 26 25 27 28 24 21 21 21 20 21 22 22 21 20 19 18 18 19 22 24 24 24 23 22 22 22 23 23 24 27 30 31 29 27 27 25 24 24 24 21 17 15 14 13 13 14 15 14 12 11 11 10 9 8 9 9 10 11 12 13 13 14 14 15 16 16 15 14 12 12 14 16 18 20 21 22 23 26 28
26 25 24 26 29 31 29 26 25 26 27 25 23 23 21 20 20 22 22 21 21 20 20 20 20 22 23 24 23 23 24 24 24 24 24 24 25 27 29 31 32 32 29 27 27 27 25 22 19 17 15 13 14 16 16 14 11 11 11 10 9 9 10 10 11 12 13 14 15 15 15 15 14 12 11 12 14 15 16 18 20 21 22 25 25 21
Wind_Direction
169 167 161 148 136 115 104 118 42 346 352 350 347 357 12 8 355 358 8 15 26 212 224 226 228 241 247 246 258 253 230 219 220 221 223 223 203 174 169 194 206 204 212 221 219 212 211 218 229 236 240 243 244 245 243 241 241 239 240 242 240 242 245 248 251 252 251 248 245 243 239 234 231 229 227 229 232 230 228 227 227 226 228 231 232 233
165 164 162 154 151 134 116 131 299 321 332 329 325 353 51 84 74 32 11 14 18 3 236 234 230 231 237 239 240 229 212 209 214 218 224 223 211 193 179 185 203 203 209 220 225 223 220 220 227 237 242 245 246 248 247 243 240 238 239 241 242 245 251 254 253 250 249 246 241 235 232 230 228 226 222 224 228 230 230 230 229 228 230 233 235 236
163 151 157 169 174 157 152 244 301 316 322 316 305 304 38 103 91 62 43 24 10 352 264 225 209 198 203 213 217 212 203 202 210 214 217 218 211 202 189 185 200 205 207 217 224 227 229 228 229 233 236 240 245 248 247 246 244 242 243 244 246 249 254 255 251 247 243 242 239 233 230 229 228 225 222 222 225 228 230 232 232 231 231 233 234 237
164 145 158 181 162 156 220 263 289 306 303 295 283 273 274 159 123 95 54 22 357 333 259 203 198 201 203 210 211 208 206 209 215 216 215 219 214 205 197 192 200 206 207 212 221 228 233 236 237 235 233 235 241 244 242 244 246 246 247 249 252 255 255 249 243 240 238 237 237 233 231 230 229 228 226 227 229 229 231 234 237 238 237 237 236 237
172 164 169 165 155 177 238 243 260 282 275 264 263 268 278 78 88 78 24 348 325 316 266 223 238 226 218 223 221 217 220 222 222 222 223 225 216 207 204 200 199 204 211 212 216 225 232 235 240 240 236 235 237 239 238 240 243 246 250 254 259 260 253 241 235 236 237 235 234 232 231 230 230 229 228 228 231 232 233 236 240 243 243 242 242 242
176 168 169 166 170 202 234 229 239 254 253 243 237 252 31 44 44 68 65 298 281 279 246 228 248 231 222 230 230 227 232 232 228 230 234 231 219 213 210 208 205 204 212 217 216 222 229 233 238 240 239 237 236 235 237 241 243 246 251 257 262 262 250 237 232 234 236 235 230 229 228 225 223 222 222 222 224 227 230 234 238 241 243 245 247 248
176 165 180 187 196 218 225 238 251 252 248 236 227 271 336 337 337 327 307 293 271 257 239 228 236 236 231 235 235 237 243 238 233 236 240 236 231 227 214 208 211 206 208 214 215 220 228 233 236 239 241 239 237 236 238 243 246 248 252 257 260 259 248 238 235 235 237 237 232 229 226 220 216 215 216 219 222 226 231 236 240 243 247 250 253 255
196 186 194 205 214 216 226 254 266 256 246 240 258 298 305 300 301 299 295 293 276 258 252 235 234 249 253 248 248 246 246 244 242 246 249 245 237 230 214 206 208 205 203 203 206 216 226 234 239 243 245 244 242 241 241 244 246 249 253 256 257 254 247 240 237 237 237 236 234 231 227 222 217 217 220 222 226 232 237 242 247 250 252 252 253 256
223 215 211 213 211 215 232 255 255 249 244 241 273 302 303 299 296 293 287 281 273 254 245 228 223 244 255 248 250 249 249 257 261 262 261 254 239 225 216 208 204 200 199 200 205 215 226 235 240 243 246 247 245 245 246 245 245 248 252 254 255 251 245 240 236 235 236 235 234 233 230 228 225 227 231 233 236 241 245 249 254 256 257 256 255 255
248 237 240 242 233 229 236 251 254 254 254 259 292 302 304 300 289 285 277 271 267 250 248 231 218 232 258 251 251 253 258 270 278 276 268 252 237 227 218 211 207 204 203 207 212 218 228 239 242 240 241 242 243 245 246 243 243 247 251 251 251 248 243 239 236 233 232 232 233 234 233 232 232 235 240 243 247 252 257 261 265 268 269 269 267 265
258 250 255 259 250 238 233 246 257 259 262 272 292 305 318 307 277 263 260 262 262 261 262 241 225 234 261 264 264 266 269 276 281 281 274 256 245 239 228 220 218 216 215 218 223 225 231 242 244 241 238 239 241 244 245 243 243 249 253 249 245 244 242 239 237 234 231 230 230 231 232 232 232 235 239 244 250 256 263 270 276 280 283 284 282 280
250 247 262 272 260 240 234 245 255 257 263 271 277 283 305 290 258 248 253 245 232 265 264 239 233 234 236 261 278 281 277 274 276 279 277 269 261 254 244 237 233 231 227 225 228 230 233 239 243 243 241 240 243 247 248 247 247 249 253 249 241 240 241 240 238 235 233 232 231 230 230 231 231 232 235 240 248 256 263 270 276 281 286 288 290 289
246 246 259 269 258 241 240 246 246 246 252 255 245 224 218 295 289 262 257 227 234 249 227 215 225 238 249 266 278 278 274 272 272 270 267 266 263 257 249 240 235 236 235 231 229 231 233 237 242 244 244 244 247 251 252 253 251 248 250 248 241 237 239 239 238 236 235 235 234 232 231 232 234 236 239 243 248 256 261 265 269 274 278 284 288 289
266 255 253 253 248 244 245 245 242 241 238 234 229 222 209 115 71 278 268 293 271 249 215 214 231 259 265 275 278 271 270 267 262 257 255 257 258 257 249 236 228 228 230 232 232 233 234 236 240 244 246 247 249 251 253 255 253 247 247 247 242 237 237 238 236 234 235 236 236 238 239 240 242 244 246 249 253 258 263 266 268 270 273 278 283 286
267 259 252 239 230 234 244 240 242 247 231 220 225 237 237 216 204 246 233 223 253 241 210 212 232 260 255 274 287 280 273 264 260 259 256 256 255 255 248 238 232 227 223 225 228 230 233 234 238 241 242 244 246 249 251 252 248 244 245 249 244 239 238 237 233 232 234 237 239 241 244 247 250 252 254 256 258 260 264 268 270 271 272 274 277 281
251 253 257 241 234 250 253 229 225 234 225 216 225 238 242 239 243 244 231 228 239 263 221 216 232 248 255 271 281 282 279 267 260 259 258 255 251 253 254 249 245 240 231 228 228 229 231 232 235 238 237 238 239 243 247 247 242 238 241 246 245 241 239 236 232 231 234 237 241 243 246 250 254 257 259 260 262 264 267 271 274 275 274 273 273 275
244 248 252 240 241 247 235 217 215 223 225 220 224 231 235 234 233 231 231 239 235 254 247 231 242 255 264 275 277 274 276 270 258 254 252 246 247 255 263 264 259 254 247 242 237 234 232 231 232 234 234 234 235 238 241 243 242 239 237 241 244 241 240 237 233 232 235 238 242 245 249 252 256 258 259 261 265 268 271 275 277 278 277 276 274 273
255 259 256 237 242 240 221 215 219 221 227 231 229 232 232 223 222 222 217 34 61 256 255 239 246 255 255 263 277 276 271 268 255 246 247 249 256 263 267 270 266 259 252 247 241 236 232 230 231 233 236 237 237 237 238 241 243 242 237 237 240 241 240 238 236 236 237 239 242 245 249 252 256 258 259 262 266 270 273 276 278 280 280 280 278 275
260 265 262 240 240 239 226 223 221 219 228 239 241 239 232 224 217 210 200 129 202 238 276 250 245 252 248 254 278 284 273 274 263 250 256 264 270 271 269 267 265 261 257 251 247 243 238 236 236 241 248 251 248 243 241 241 243 244 240 237 236 238 238 238 238 239 240 242 244 247 250 253 255 257 260 264 268 271 273 275 277 280 282 282 281 278
254 260 264 251 242 235 230 231 228 229 235 240 242 238 234 239 236 220 212 206 200 199 263 272 251 255 260 267 280 282 279 285 278 264 265 269 273 275 276 270 262 262 264 259 253 250 249 249 251 257 266 267 260 250 243 242 245 247 245 240 236 235 235 236 238 241 243 246 248 250 253 254 256 258 261 265 269 271 272 273 275 278 280 282 282 280
246 246 253 259 247 231 232 238 242 247 243 239 241 238 234 234 233 233 230 225 222 193 176 197 248 261 272 284 289 287 289 289 283 275 272 273 274 276 275 267 255 255 260 260 259 259 260 261 264 269 274 273 266 258 253 252 255 256 254 248 241 236 235 237 239 241 244 247 250 252 254 255 256 257 260 264 268 270 271 272 274 275 277 278 280 279
242 242 246 251 247 242 245 246 247 253 251 245 245 244 242 238 231 232 232 230 232 226 213 194 235 265 277 287 287 291 294 287 284 281 279 281 279 277 275 266 254 251 255 260 264 267 267 269 272 273 271 268 265 263 263 263 261 261 261 258 250 242 239 239 240 241 244 246 248 250 252 254 255 257 259 262 264 267 269 271 272 273 274 275 277 277
245 244 244 246 247 250 254 251 248 254 254 247 243 241 242 240 236 231 226 236 233 227 237 240 245 272 280 284 287 292 286 278 282 282 282 284 280 277 276 268 258 252 255 260 265 268 270 272 274 271 266 264 264 264 265 265 264 263 264 262 256 248 243 241 241 243 245 247 248 249 250 250 250 251 254 257 260 262 264 267 269 271 273 274 274 274
246 242 242 247 251 252 253 255 258 259 252 244 243 245 243 244 248 247 252 259 246 225 237 242 242 269 276 284 289 289 281 277 281 281 280 281 278 279 280 275 265 255 254 259 263 266 268 268 267 266 266 269 271 271 270 268 268 268 265 260 256 253 250 247 244 244 244 246 248 249 250 252 253 251 249 249 252 255 257 259 263 267 269 271 272 271
252 242 241 253 265 260 254 254 258 260 257 250 247 248 249 253 258 259 261 262 255 246 245 236 242 264 272 283 286 282 279 278 276 271 271 274 279 280 281 280 271 259 256 259 262 263 261 261 264 266 272 280 280 276 272 269 268 267 263 259 258 257 255 252 251 250 249 248 248 249 250 253 258 258 253 248 247 249 250 253 257 262 265 267 268 269
261 254 249 245 236 237 244 248 256 264 269 265 260 258 257 258 260 262 261 252 251 259 248 234 252 268 272 278 279 276 276 276 274 271 268 273 281 282 279 276 267 257 256 259 261 262 261 262 265 269 279 288 285 276 268 264 264 262 261 260 259 258 256 255 256 257 256 255 254 255 255 255 257 259 259 256 251 248 247 249 254 259 261 263 265 268
267 263 261 259 256 255 261 266 266 266 268 270 273 275 269 261 258 257 249 243 256 264 253 246 261 270 270 271 275 276 278 280 280 278 275 278 284 284 279 273 264 254 252 256 260 264 267 271 274 277 287 293 289 278 267 260 257 256 257 257 257 256 256 258 260 261 265 266 260 254 256 257 256 257 259 256 253 252 251 249 251 256 259 262 265 269
272 271 269 269 271 273 275 276 273 268 266 264 266 271 272 264 254 247 241 248 261 263 259 264 270 270 271 277 280 282 284 284 282 282 283 282 283 282 276 269 263 254 250 255 260 266 274 280 283 286 293 295 290 282 271 261 256 255 255 255 256 258 260 262 264 269 274 276 263 249 253 256 253 255 256 252 251 255 255 250 249 255 260 263 266 270
270 273 272 270 271 272 274 275 273 271 269 265 261 262 264 259 251 249 252 258 264 264 268 276 278 276 279 283 285 287 290 290 287 284 281 278 275 273 268 263 260 254 251 254 263 273 278 280 283 288 292 293 290 285 277 265 259 258 258 260 261 264 265 266 269 271 271 270 261 251 250 249 247 249 249 247 248 250 250 250 253 257 260 262 264 266
262 266 268 267 267 266 266 269 272 272 271 269 266 263 262 260 258 260 262 265 268 269 271 276 277 277 281 285 288 290 293 293 290 283 277 274 271 268 263 260 257 254 252 256 267 277 277 275 280 286 288 290 291 287 280 270 265 264 263 263 262 263 265 268 271 270 263 259 257 251 244 240 241 242 240 240 244 246 247 252 256 257 258 259 260 260
258 260 264 271 277 276 273 275 276 276 275 275 272 267 265 265 265 265 266 267 270 272 275 276 275 276 282 288 291 293 292 290 289 284 279 275 269 264 261 260 258 255 255 260 268 273 270 267 274 280 283 288 290 285 280 274 270 268 266 264 262 262 264 267 269 270 264 257 253 248 242 237 236 236 236 239 241 241 246 254 255 254 255 258 261 263
261 264 269 280 284 283 283 285 284 284 284 278 270 267 268 269 269 270 271 271 271 274 277 278 276 280 288 293 292 291 288 283 283 285 283 276 268 264 262 262 261 260 260 263 267 268 264 262 268 273 278 286 289 285 282 281 277 273 271 270 268 264 264 265 267 268 264 256 249 244 239 234 233 234 238 241 240 239 246 252 251 251 256 264 272 277
266 267 273 281 283 282 287 291 290 289 284 272 266 270 273 272 272 274 274 273 274 275 276 277 280 287 293 292 288 288 285 277 276 280 280 274 268 264 262 262 263 263 262 263 265 266 261 257 261 267 274 284 289 289 288 286 283 281 279 277 274 270 269 270 268 266 262 254 247 242 237 235 236 237 238 240 238 240 247 251 251 256 266 278 287 289
269 273 278 281 279 281 288 292 287 278 268 268 277 284 286 285 283 281 279 281 283 282 279 280 286 291 289 284 284 287 284 276 272 272 272 271 269 265 261 260 260 259 258 258 263 263 254 248 254 262 270 281 286 285 284 285 287 288 285 282 281 282 279 274 269 266 262 255 249 244 240 238 239 239 239 239 240 245 251 253 255 263 275 285 291 293
267 274 279 278 275 277 280 279 272 263 258 276 292 296 295 292 287 281 281 286 289 288 285 284 285 285 282 279 281 283 279 273 269 267 267 268 270 268 265 261 257 256 256 255 257 254 246 244 249 257 269 280 280 273 274 280 285 287 287 285 286 286 284 281 277 272 265 257 251 247 243 240 239 239 240 241 245 251 255 256 259 266 274 281 288 291
267 270 274 274 272 271 261 225 226 272 284 287 290 290 288 286 279 271 277 289 294 291 288 284 279 276 275 275 276 278 277 273 269 270 271 273 274 272 268 264 258 255 257 255 249 245 246 249 252 258 272 280 275 267 268 274 277 280 283 284 284 284 284 282 281 279 273 264 255 250 245 242 241 241 241 243 248 253 256 256 257 262 268 275 283 288
266 265 266 266 263 261 256 246 261 281 290 294 297 295 287 282 276 267 273 288 296 289 283 278 268 264 269 272 272 275 277 276 274 274 277 279 278 273 268 262 256 253 256 253 247 245 248 250 252 261 271 275 272 268 268 268 270 273 277 280 282 282 281 280 279 279 277 272 263 254 248 244 242 242 243 245 249 253 257 259 259 260 266 274 281 287
254 254 257 259 257 257 258 262 274 284 285 294 304 300 293 289 286 275 272 280 285 281 276 272 266 266 271 273 272 272 275 278 279 279 280 280 276 272 266 258 251 249 250 248 245 246 245 245 251 260 267 272 274 272 270 269 270 273 276 280 282 281 279 278 277 275 275 275 272 262 253 248 244 242 241 244 249 254 259 265 266 264 267 275 283 287
242 249 253 252 250 248 245 246 256 263 268 283 291 291 293 293 290 284 275 275 280 278 272 269 268 270 274 275 272 269 270 274 277 280 283 283 277 275 270 257 248 246 246 245 246 247 245 246 252 259 266 274 277 274 271 269 271 274 277 279 280 279 277 275 273 271 272 273 273 268 258 248 244 242 240 241 245 249 253 258 259 261 269 277 282 286
245 248 249 247 248 250 245 243 251 258 265 275 280 282 290 291 287 279 266 273 285 284 272 264 262 260 258 263 269 270 274 283 286 285 288 289 286 282 274 256 245 241 242 245 248 250 248 247 252 260 268 275 275 273 272 273 274 276 277 278 278 277 276 273 269 267 267 266 267 269 263 253 249 248 248 250 251 252 257 258 256 261 272 278 282 286
244 246 248 249 252 253 248 246 255 263 266 269 270 273 277 278 273 263 258 271 279 276 264 254 244 232 229 250 275 283 289 299 302 298 294 291 287 283 272 255 244 239 240 243 246 249 251 252 257 264 270 274 275 276 277 278 278 278 277 277 277 277 275 270 263 259 259 257 259 263 261 255 253 253 256 259 258 258 261 262 260 264 274 279 283 288
248 251 250 249 251 254 251 249 258 267 270 272 274 274 272 270 266 263 265 270 272 271 269 257 239 227 228 246 269 281 287 297 300 297 290 282 273 266 257 249 247 243 241 243 246 249 252 256 260 267 273 277 278 278 279 279 279 280 281 281 282 280 274 265 255 250 249 250 252 256 254 249 249 252 256 260 259 259 260 261 261 268 274 279 284 288
255 251 247 248 252 254 247 242 251 268 275 279 280 275 264 257 257 262 267 269 270 274 276 266 253 250 251 255 264 273 284 294 293 283 276 273 264 254 248 243 241 241 242 244 246 248 252 257 264 271 276 278 278 277 278 280 281 283 285 286 287 283 273 259 247 242 241 243 247 249 247 245 248 254 256 256 255 256 257 258 264 272 278 282 286 289
252 246 248 253 253 249 242 237 247 266 274 279 283 279 265 254 256 264 269 272 273 271 267 262 264 270 274 276 281 285 289 290 283 271 267 268 260 247 241 237 233 234 240 244 247 252 260 267 272 276 277 276 276 276 277 279 280 282 284 286 285 282 272 255 241 235 234 239 244 245 243 247 253 256 255 254 253 254 259 265 272 278 282 285 288 289
253 248 250 254 251 248 249 251 261 273 279 283 286 288 284 274 272 276 280 284 284 273 259 256 264 275 282 283 284 284 282 280 274 263 254 251 245 236 230 230 232 236 242 249 257 265 272 278 280 279 277 275 274 274 275 276 278 281 284 284 281 277 268 252 241 235 233 236 239 238 239 246 253 254 255 256 255 257 263 268 273 277 281 285 288 291
257 254 257 262 263 264 267 270 275 280 283 285 285 288 291 289 289 291 290 290 289 275 258 254 268 283 288 287 284 279 272 268 266 259 244 229 225 228 228 227 230 236 242 249 258 266 273 280 281 278 275 273 273 273 273 275 279 283 285 283 279 275 265 251 243 239 237 237 237 236 238 245 250 254 257 258 257 258 260 264 271 278 283 287 290 292
262 263 265 267 269 271 273 277 280 281 282 284 284 286 292 295 296 297 295 292 290 281 271 276 290 293 293 292 290 286 276 267 264 262 254 239 227 226 228 228 227 232 236 242 249 255 264 278 284 280 275 272 272 273 274 276 281 285 285 282 280 277 268 256 247 242 239 238 237 238 241 246 250 254 256 256 255 254 256 266 277 282 285 288 290 290
264 264 263 264 266 268 270 274 279 281 282 286 289 291 293 293 290 291 292 292 293 291 288 290 291 289 288 288 288 287 283 275 269 267 266 261 245 233 230 227 222 221 227 233 240 246 253 266 277 279 277 275 273 273 274 279 284 288 289 287 282 277 272 263 254 248 243 238 236 237 239 241 245 248 250 251 252 253 261 274 280 282 285 286 286 287
263 263 265 269 270 270 272 275 279 280 281 285 290 292 291 289 287 287 289 293 295 295 291 287 285 284 284 285 285 284 282 279 276 271 270 269 262 254 249 242 231 226 232 236 239 242 245 251 260 268 275 279 277 273 273 280 286 288 293 297 293 285 277 268 258 253 249 244 240 238 237 236 237 239 243 248 254 260 268 274 276 278 281 281 281 284
269 270 272 273 273 273 276 279 280 281 283 285 286 283 281 280 280 280 282 286 290 289 285 280 279 280 281 282 283 284 282 280 279 275 270 267 267 267 268 263 252 245 245 244 244 246 246 242 242 251 264 274 278 276 274 275 280 283 288 296 306 307 299 286 271 260 254 251 247 243 240 238 236 238 243 250 257 261 266 270 273 275 276 276 279 283
277 277 277 275 274 276 279 281 280 279 279 278 276 275 273 272 272 272 273 274 275 275 275 273 272 272 273 274 277 280 281 281 280 279 275 269 267 269 271 267 257 248 244 241 243 247 248 243 238 240 248 259 270 274 274 272 273 276 278 283 295 305 308 305 295 281 270 262 257 251 245 238 235 240 251 258 261 263 264 267 270 273 274 277 282 286
Height
3138 3138 3139 3140 3140 3140 3140 3140 3140 3140 3140 3140 3139 3139 3139 3138 3138 3137 3137 3135 3135 3135 3135 3136 3137 3138 3140 3141 3142 3143 3143 3143 3144 3144 3144 3144 3144 3144 3144 3145 3146 3148 3148 3148 3149 3149 3149 3150 3150 3150 3151 3151 3152 3152 3153 3153 3154 3155 3155 3156 3157 3158 3159 3160 3160 3160 3160 3161 3161 3161 3162 3163 3163 3164 3165 3166 3166 3167 3168 3169 3170 3171 3172 3172 3173 3173
3138 3138 3139 3140 3140 3140 3140 3140 3140 3140 3140 3140 3139 3139 3139 3139 3138 3138 3137 3136 3135 3135 3135 3136 3137 3138 3139 3140 3141 3141 3142 3142 3143 3144 3144 3143 3143 3143 3143 3144 3145 3147 3147 3147 3148 3148 3149 3149 3149 3150 3150 3151 3152 3152 3153 3153 3153 3154 3155 3156 3156 3157 3158 3158 3159 3159 3159 3160 3160 3160 3160 3161 3161 3162 3163 3164 3165 3166 3167 3168 3169 3170 3171 3171 3172 3172
3138 3138 3139 3139 3139 3140 3140 3140 3140 3140 3140 3139 3139 3139 3139 3139 3139 3138 3138 3137 3137 3136 3136 3137 3137 3138 3139 3139 3140 3140 3141 3141 3142 3142 3142 3142 3142 3142 3142 3142 3144 3145 3146 3146 3147 3147 3148 3149 3149 3150 3150 3151 3152 3152 3153 3153 3153 3154 3154 3155 3156 3156 3157 3157 3157 3158 3158 3158 3158 3159 3159 3159 3160 3160 3161 3162 3163 3164 3165 3166 3168 3169 3169 3170 3170 3171
3137 3138 3138 3139 3139 3139 3139 3139 3140 3140 3139 3139 3139 3138 3138 3138 3138 3138 3138 3138 3138 3137 3137 3137 3138 3138 3138 3139 3139 3139 3139 3140 3140 3140 3140 3140 3140 3140 3140 3141 3141 3143 3144 3145 3146 3147 3147 3148 3149 3149 3150 3150 3151 3151 3152 3153 3153 3154 3154 3155 3155 3155 3156 3156 3156 3156 3157 3157 3157 3158 3158 3158 3159 3160 3160 3161 3162 3163 3164 3165 3166 3167 3167 3168 3169 3169
3137 3137 3138 3138 3139 3139 3139 3139 3139 3139 3139 3139 3139 3138 3138 3138 3138 3138 3138 3138 3138 3138 3137 3138 3138 3137 3138 3138 3138 3138 3138 3138 3138 3138 3138 3138 3138 3139 3139 3139 3139 3141 3142 3143 3145 3146 3146 3147 3148 3149 3149 3149 3150 3150 3151 3152 3152 3153 3153 3154 3154 3154 3154 3154 3155 3155 3156 3156 3156 3157 3157 3158 3158 3159 3160 3160 3161 3162 3163 3163 3164 3165 3166 3167 3167 3168
3136 3137 3137 3138 3138 3138 3139 3139 3139 3139 3139 3139 3139 3138 3138 3138 3138 3138 3138 3138 3138 3137 3137 3137 3137 3136 3136 3137 3137 3137 3137 3137 3137 3137 3137 3137 3137 3137 3137 3137 3138 3139 3140 3142 3143 3144 3144 3145 3146 3147 3148 3149 3149 3150 3150 3151 3151 3152 3152 3152 3153 3153 3153 3153 3153 3154 3155 3155 3156 3156 3157 3157 3158 3158 3159 3159 3160 3160 3161 3162 3163 3163 3164 3165 3166 3167
3136 3136 3137 3137 3137 3138 3138 3138 3138 3138 3138 3138 3138 3138 3138 3138 3137 3137 3138 3138 3137 3137 3137 3137 3136 3135 3135 3135 3136 3136 3136 3135 3135 3135 3135 3135 3135 3135 3135 3136 3137 3137 3138 3140 3141 3142 3143 3144 3144 3145 3146 3147 3148 3149 3149 3149 3150 3150 3151 3151 3151 3152 3152 3152 3152 3153 3154 3155 3155 3156 3156 3157 3157 3158 3158 3158 3159 3159 3160 3161 3162 3162 3163 3164 3165 3165
3135 3136 3136 3136 3137 3137 3137 3138 3138 3137 3137 3137 3137 3137 3137 3137 3137 3137 3137 3137 3136 3136 3136 3136 3135 3134 3134 3134 3134 3134 3134 3134 3133 3134 3134 3134 3134 3134 3134 3134 3135 3135 3136 3137 3139 3140 3141 3142 3143 3144 3145 3146 3146 3147 3148 3148 3148 3149 3149 3149 3150 3150 3151 3151 3152 3152 3153 3154 3154 3155 3155 3156 3157 3157 3158 3158 3159 3159 3160 3161 3161 3162 3163 3163 3164 3164
3135 3135 3135 3135 3136 3136 3136 3137 3137 3137 3137 3137 3137 3137 3136 3136 3136 3135 3135 3135 3135 3135 3134 3134 3134 3134 3132 3131 3132 3132 3132 3131 3131 3132 3132 3132 3133 3133 3133 3133 3133 3134 3135 3135 3137 3138 3139 3140 3141 3142 3143 3144 3145 3145 3146 3146 3147 3147 3148 3148 3148 3149 3149 3150 3151 3151 3152 3152 3153 3154 3155 3155 3156 3156 3157 3158 3158 3159 3159 3160 3160 3161 3161 3162 3162 3163
3134 3134 3134 3134 3135 3135 3135 3136 3136 3136 3136 3136 3136 3135 3135 3135 3134 3134 3134 3134 3134 3133 3132 3132 3133 3132 3130 3128 3130 3130 3129 3129 3129 3129 3130 3130 3131 3131 3131 3132 3132 3133 3133 3134 3135 3136 3138 3138 3139 3140 3140 3141 3142 3143 3144 3145 3145 3146 3146 3147 3147 3147 3148 3149 3149 3150 3151 3151 3152 3153 3154 3154 3155 3155 3156 3157 3157 3157 3158 3158 3159 3159 3160 3160 3160 3161
3133 3133 3133 3133 3133 3134 3134 3134 3134 3135 3135 3135 3135 3134 3134 3134 3134 3134 3133 3133 3133 3132 3131 3131 3131 3131 3128 3126 3126 3128 3127 3127 3128 3128 3128 3128 3129 3129 3130 3130 3131 3131 3132 3132 3133 3134 3136 3137 3137 3137 3138 3139 3140 3141 3142 3143 3144 3145 3145 3145 3146 3146 3147 3147 3148 3149 3150 3150 3151 3152 3153 3153 3154 3154 3155 3155 3156 3156 3157 3157 3157 3157 3157 3158 3158 3158
3131 3131 3131 3131 3131 3132 3133 3133 3133 3133 3133 3134 3134 3134 3134 3133 3133 3133 3133 3133 3133 3131 3130 3130 3129 3130 3127 3124 3125 3126 3126 3127 3127 3126 3127 3127 3127 3128 3128 3129 3129 3130 3130 3130 3131 3132 3134 3134 3134 3135 3136 3137 3138 3139 3140 3141 3142 3143 3143 3144 3144 3144 3145 3146 3147 3148 3148 3149 3150 3151 3152 3152 3153 3153 3154 3154 3154 3155 3155 3156 3156 3156 3156 3156 3156 3156
3129 3130 3130 3130 3130 3130 3131 3131 3132 3132 3132 3133 3133 3133 3133 3134 3134 3134 3133 3133 3133 3131 3130 3129 3129 3128 3125 3124 3125 3125 3125 3126 3125 3125 3126 3125 3125 3126 3126 3127 3127 3127 3128 3128 3129 3130 3131 3132 3132 3133 3134 3135 3136 3137 3137 3138 3138 3139 3140 3141 3142 3143 3143 3144 3146 3146 3147 3148 3149 3150 3150 3151 3152 3152 3153 3153 3153 3154 3154 3154 3155 3155 3155 3155 3155 3155
3128 3128 3128 3128 3129 3129 3129 3130 3130 3131 3131 3131 3132 3132 3132 3134 3136 3136 3135 3134 3132 3129 3129 3129 3129 3127 3124 3123 3123 3123 3124 3124 3124 3124 3124 3124 3124 3124 3124 3124 3124 3124 3125 3126 3127 3128 3129 3130 3130 3131 3132 3133 3134 3135 3135 3135 3135 3136 3137 3138 3140 3141 3141 3142 3144 3145 3146 3147 3147 3148 3149 3150 3150 3151 3151 3152 3152 3152 3153 3153 3153 3153 3153 3154 3153 3153
3127 3126 3126 3127 3127 3127 3128 3128 3129 3129 3130 3130 3131 3131 3131 3132 3133 3133 3133 3131 3129 3128 3128 3129 3128 3125 3123 3122 3122 3122 3123 3123 3122 3122 3122 3122 3122 3122 3122 3122 3122 3122 3123 3123 3124 3125 3126 3127 3128 3128 3129 3131 3131 3132 3132 3132 3132 3133 3134 3136 3137 3139 3139 3141 3142 3143 3144 3145 3145 3146 3147 3148 3148 3149 3150 3150 3150 3151 3151 3151 3152 3152 3152 3152 3152 3152
3125 3124 3124 3125 3125 3126 3127 3127 3128 3128 3128 3129 3129 3130 3129 3129 3130 3130 3130 3129 3128 3128 3128 3127 3125 3123 3121 3121 3121 3121 3121 3121 3121 3121 3121 3121 3121 3121 3121 3121 3121 3121 3121 3122 3122 3123 3124 3125 3125 3126 3127 3128 3129 3129 3129 3130 3130 3131 3132 3133 3135 3136 3137 3139 3140 3141 3142 3143 3143 3144 3145 3146 3146 3147 3148 3148 3148 3149 3149 3149 3150 3150 3150 3150 3150 3150
3123 3123 3123 3124 3124 3124 3125 3126 3126 3127 3127 3127 3127 3128 3128 3128 3128 3128 3128 3128 3129 3129 3126 3125 3123 3121 3121 3120 3119 3119 3119 3118 3119 3118 3119 3119 3119 3119 3119 3120 3120 3120 3120 3120 3120 3121 3121 3122 3122 3123 3124 3125 3126 3127 3127 3127 3128 3128 3129 3130 3132 3134 3135 3137 3138 3140 3140 3141 3141 3142 3142 3143 3144 3145 3145 3146 3146 3146 3147 3147 3147 3147 3147 3147 3147 3148
3122 3122 3122 3123 3123 3123 3124 3124 3124 3125 3125 3125 3125 3126 3126 3127 3127 3127 3128 3129 3130 3130 3126 3122 3122 3121 3120 3119 3118 3118 3118 3117 3117 3117 3117 3118 3118 3118 3118 3118 3118 3118 3118 3118 3118 3118 3118 3119 3120 3121 3122 3123 3123 3124 3124 3125 3125 3126 3126 3127 3129 3131 3133 3135 3136 3137 3138 3138 3139 3139 3140 3141 3141 3142 3143 3143 3144 3144 3144 3144 3144 3144 3144 3144 3145 3145
3120 3120 3120 3121 3121 3121 3122 3122 3122 3122 3123 3123 3123 3124 3124 3125 3125 3125 3127 3128 3128 3129 3125 3121 3120 3120 3119 3118 3118 3118 3117 3116 3116 3115 3115 3116 3116 3116 3116 3116 3117 3117 3117 3116 3116 3117 3117 3118 3118 3119 3120 3120 3121 3121 3122 3122 3122 3123 3124 3125 3126 3127 3130 3132 3133 3134 3135 3136 3137 3137 3137 3138 3138 3139 3140 3140 3141 3142 3142 3142 3141 3141 3141 3141 3141 3142
3118 3118 3118 3118 3119 3120 3120 3120 3120 3120 3121 3121 3122 3122 3122 3123 3123 3123 3124 3124 3124 3126 3125 3121 3119 3117 3116 3116 3117 3117 3117 3116 3115 3115 3114 3114 3114 3114 3114 3115 3115 3115 3115 3115 3115 3115 3116 3116 3117 3117 3118 3118 3119 3119 3119 3120 3120 3120 3121 3122 3123 3124 3126 3127 3129 3130 3132 3133 3134 3134 3134 3135 3135 3136 3137 3138 3138 3139 3139 3139 3139 3139 3139 3138 3138 3138
3116 3116 3116 3117 3118 3118 3118 3118 3119 3119 3119 3119 3120 3120 3120 3120 3121 3121 3121 3121 3121 3122 3123 3121 3117 3114 3114 3115 3115 3115 3115 3115 3114 3114 3113 3113 3112 3112 3112 3112 3113 3113 3113 3113 3113 3113 3114 3114 3115 3115 3115 3116 3116 3116 3117 3118 3118 3118 3119 3119 3120 3121 3122 3124 3125 3126 3127 3128 3129 3130 3130 3131 3132 3133 3134 3135 3135 3136 3136 3136 3136 3136 3135 3135 3135 3135
3114 3114 3115 3115 3116 3116 3116 3116 3117 3117 3117 3117 3118 3118 3118 3118 3119 3119 3119 3118 3118 3118 3119 3118 3114 3110 3111 3114 3113 3113 3114 3113 3113 3113 3112 3112 3111 3111 3111 3110 3110 3110 3111 3111 3111 3111 3111 3112 3112 3113 3113 3113 3113 3114 3114 3115 3116 3116 3117 3117 3118 3119 3119 3119 3120 3122 3123 3124 3124 3125 3126 3127 3129 3130 3131 3131 3132 3133 3133 3133 3133 3132 3132 3132 3132 3132
3113 3113 3113 3113 3113 3114 3115 3115 3115 3115 3115 3115 3116 3116 3116 3116 3116 3117 3116 3116 3116 3115 3115 3115 3111 3107 3109 3111 3111 3111 3112 3112 3111 3111 3110 3110 3110 3110 3109 3109 3109 3108 3109 3109 3109 3109 3109 3109 3110 3110 3110 3110 3110 3111 3112 3112 3113 3114 3114 3115 3115 3115 3115 3116 3118 3119 3120 3121 3121 3121 3122 3123 3124 3125 3126 3128 3129 3130 3130 3130 3129 3129 3129 3129 3128 3128
3111 3111 3110 3111 3111 3112 3112 3112 3112 3112 3113 3113 3113 3114 3114 3114 3114 3115 3114 3114 3114 3113 3113 3113 3109 3105 3106 3108 3109 3109 3109 3110 3110 3109 3109 3108 3108 3108 3108 3107 3107 3107 3106 3106 3106 3107 3107 3107 3107 3107 3107 3108 3108 3108 3109 3109 3110 3111 3111 3111 3111 3112 3112 3114 3115 3115 3116 3116 3117 3118 3119 3120 3122 3122 3122 3123 3124 3126 3126 3126 3126 3126 3126 3126 3125 3125
3109 3109 3109 3109 3110 3110 3110 3110 3110 3109 3110 3110 3111 3112 3112 3112 3113 3113 3112 3113 3112 3110 3110 3109 3105 3103 3104 3105 3106 3107 3107 3107 3108 3107 3107 3106 3106 3106 3105 3105 3105 3105 3104 3104 3104 3104 3105 3105 3105 3105 3105 3105 3105 3105 3106 3106 3107 3107 3107 3108 3108 3109 3110 3110 3111 3111 3111 3111 3112 3112 3114 3116 3118 3119 3119 3120 3121 3121 3122 3122 3122 3123 3123 3123 3122 3121
3107 3107 3107 3107 3108 3108 3108 3108 3108 3107 3108 3108 3108 3109 3110 3110 3111 3111 3111 3111 3109 3107 3106 3104 3101 3101 3103 3103 3104 3105 3105 3104 3105 3105 3104 3104 3103 3103 3103 3103 3103 3102 3102 3102 3102 3102 3102 3102 3103 3103 3103 3102 3102 3102 3102 3103 3103 3104 3104 3105 3105 3105 3105 3106 3107 3107 3106 3107 3108 3108 3109 3110 3112 3114 3117 3118 3117 3117 3118 3119 3120 3120 3120 3120 3119 3118
3104 3104 3104 3104 3104 3104 3105 3106 3106 3106 3105 3105 3106 3106 3107 3108 3108 3108 3108 3107 3106 3104 3101 3100 3100 3099 3100 3102 3102 3102 3102 3102 3102 3102 3101 3101 3101 3100 3100 3100 3100 3099 3100 3099 3099 3099 3099 3100 3100 3100 3100 3099 3099 3098 3098 3098 3099 3100 3100 3101 3101 3100 3101 3102 3103 3102 3101 3102 3103 3104 3105 3107 3108 3110 3111 3112 3112 3113 3115 3116 3116 3116 3116 3116 3116 3115
3102 3101 3102 3102 3101 3102 3102 3103 3103 3103 3103 3103 3104 3104 3105 3105 3105 3105 3104 3102 3103 3101 3097 3097 3099 3097 3096 3100 3100 3100 3100 3100 3099 3098 3098 3098 3097 3097 3097 3096 3096 3096 3096 3096 3096 3096 3096 3097 3097 3097 3097 3096 3095 3094 3094 3094 3095 3095 3096 3096 3096 3096 3097 3098 3099 3099 3097 3097 3097 3098 3101 3103 3104 3105 3105 3106 3108 3110 3111 3112 3112 3113 3113 3113 3113 3112
3099 3099 3099 3099 3099 3099 3100 3100 3100 3100 3100 3100 3101 3102 3102 3102 3101 3101 3100 3100 3100 3098 3094 3095 3096 3092 3093 3097 3097 3097 3097 3096 3095 3095 3094 3093 3093 3093 3093 3092 3092 3093 3093 3093 3093 3093 3093 3093 3093 3094 3093 3093 3092 3091 3091 3091 3091 3092 3092 3092 3092 3093 3093 3093 3095 3095 3094 3093 3093 3094 3096 3097 3098 3099 3101 3102 3105 3107 3107 3107 3108 3109 3110 3110 3110 3109
3096 3096 3096 3096 3096 3096 3097 3097 3097 3097 3096 3096 3097 3098 3098 3099 3098 3098 3097 3097 3097 3094 3092 3093 3091 3087 3090 3094 3093 3093 3093 3091 3090 3089 3089 3089 3089 3089 3089 3088 3088 3089 3089 3089 3090 3090 3090 3090 3090 3090 3090 3090 3089 3088 3088 3088 3088 3088 3088 3088 3089 3090 3090 3089 3090 3090 3089 3089 3090 3090 3091 3092 3093 3094 3096 3099 3101 3102 3103 3104 3105 3106 3106 3107 3106 3106
3094 3094 3094 3094 3094 3093 3094 3094 3094 3093 3093 3092 3093 3094 3095 3095 3095 3095 3094 3094 3094 3091 3089 3090 3085 3082 3086 3090 3089 3088 3088 3087 3085 3085 3084 3084 3085 3085 3084 3084 3084 3085 3086 3086 3086 3086 3087 3087 3087 3087 3087 3087 3086 3086 3085 3085 3085 3085 3085 3085 3086 3087 3087 3086 3085 3085 3085 3086 3087 3088 3088 3089 3089 3091 3093 3095 3096 3098 3099 3100 3101 3102 3103 3103 3102 3101
3091 3091 3091 3092 3091 3089 3090 3091 3091 3090 3089 3087 3087 3089 3091 3091 3091 3090 3090 3090 3090 3088 3086 3084 3080 3078 3082 3086 3084 3083 3083 3082 3081 3081 3081 3081 3081 3081 3080 3080 3080 3081 3082 3082 3083 3083 3083 3084 3084 3084 3084 3084 3084 3083 3083 3083 3083 3083 3082 3082 3083 3084 3084 3083 3083 3083 3083 3083 3084 3085 3086 3087 3087 3088 3090 3091 3093 3094 3096 3097 3098 3099 3099 3099 3098 3097
3088 3089 3089 3090 3087 3086 3087 3088 3087 3087 3084 3080 3080 3085 3087 3087 3087 3086 3085 3085 3085 3085 3083 3080 3076 3076 3079 3080 3078 3077 3078 3078 3077 3078 3077 3077 3077 3077 3076 3076 3077 3077 3078 3079 3079 3079 3079 3080 3081 3082 3082 3082 3081 3081 3081 3080 3080 3080 3080 3080 3080 3081 3081 3081 3081 3081 3081 3081 3082 3082 3083 3084 3085 3086 3087 3088 3090 3091 3092 3094 3095 3096 3096 3095 3095 3094
3085 3086 3087 3087 3085 3084 3084 3085 3085 3083 3077 3073 3076 3080 3082 3083 3083 3082 3079 3080 3081 3081 3079 3075 3073 3074 3076 3075 3074 3074 3074 3073 3073 3073 3073 3073 3073 3073 3072 3073 3073 3073 3074 3075 3075 3075 3075 3077 3078 3079 3079 3079 3079 3079 3079 3078 3078 3078 3078 3077 3077 3078 3078 3079 3079 3079 3079 3079 3080 3080 3081 3082 3082 3084 3085 3086 3087 3088 3089 3091 3091 3092 3092 3092 3091 3090
3082 3083 3084 3083 3083 3081 3081 3084 3083 3075 3070 3071 3074 3076 3077 3078 3078 3077 3075 3075 3076 3075 3074 3072 3071 3072 3072 3072 3072 3071 3070 3070 3069 3069 3069 3070 3070 3069 3069 3069 3070 3070 3070 3071 3071 3071 3072 3073 3075 3076 3076 3077 3077 3077 3076 3076 3076 3076 3075 3075 3075 3075 3075 3075 3076 3076 3077 3077 3077 3078 3078 3079 3080 3081 3082 3083 3084 3085 3086 3087 3088 3088 3088 3088 3088 3087
3080 3081 3081 3080 3080 3079 3078 3080 3077 3068 3065 3069 3071 3071 3072 3073 3074 3073 3070 3069 3071 3071 3069 3068 3068 3069 3069 3069 3069 3068 3067 3066 3066 3066 3067 3067 3067 3066 3065 3065 3066 3067 3067 3068 3068 3069 3070 3071 3072 3073 3073 3074 3074 3074 3074 3074 3074 3073 3073 3073 3072 3072 3072 3072 3072 3073 3074 3074 3075 3075 3076 3076 3077 3078 3079 3081 3081 3082 3083 3083 3084 3084 3085 3084 3084 3084
3077 3077 3078 3077 3076 3076 3075 3074 3070 3065 3064 3066 3067 3068 3069 3068 3070 3070 3066 3064 3067 3068 3065 3064 3065 3066 3065 3065 3065 3065 3065 3063 3063 3064 3065 3064 3062 3062 3062 3062 3063 3064 3064 3065 3066 3067 3068 3068 3069 3070 3070 3071 3071 3071 3072 3072 3071 3070 3070 3070 3069 3069 3069 3069 3069 3070 3071 3072 3072 3073 3073 3074 3074 3075 3076 3077 3077 3078 3079 3079 3080 3081 3081 3081 3081 3080
3074 3074 3075 3075 3073 3073 3073 3071 3068 3065 3063 3063 3064 3065 3066 3066 3067 3067 3064 3061 3063 3064 3062 3062 3063 3062 3061 3061 3061 3062 3062 3061 3061 3061 3061 3060 3059 3058 3058 3059 3060 3061 3062 3063 3063 3064 3065 3066 3066 3067 3068 3068 3068 3069 3069 3069 3068 3067 3067 3067 3066 3066 3065 3065 3066 3067 3067 3068 3069 3069 3070 3071 3071 3072 3073 3073 3074 3076 3076 3076 3077 3078 3078 3077 3077 3077
3071 3071 3072 3072 3070 3070 3071 3069 3066 3063 3061 3061 3062 3063 3063 3064 3064 3065 3062 3058 3058 3060 3059 3058 3059 3058 3058 3059 3059 3060 3060 3059 3059 3059 3059 3057 3056 3056 3056 3057 3058 3059 3060 3061 3061 3062 3062 3063 3064 3064 3065 3065 3065 3065 3065 3065 3065 3064 3064 3063 3063 3062 3061 3061 3062 3063 3064 3064 3065 3065 3066 3066 3067 3068 3069 3070 3071 3072 3072 3072 3073 3074 3074 3074 3074 3073
3068 3069 3069 3068 3067 3068 3068 3066 3063 3060 3059 3060 3060 3060 3062 3062 3063 3063 3060 3055 3055 3057 3055 3054 3055 3055 3056 3057 3057 3058 3058 3057 3057 3057 3056 3055 3054 3054 3054 3055 3056 3057 3058 3058 3059 3059 3060 3061 3061 3062 3062 3062 3062 3062 3062 3061 3061 3061 3061 3060 3059 3058 3058 3058 3059 3059 3060 3060 3061 3061 3062 3062 3063 3064 3066 3067 3068 3068 3068 3069 3070 3070 3070 3071 3070 3069
3065 3065 3065 3065 3064 3065 3065 3062 3059 3057 3057 3057 3058 3059 3060 3061 3060 3058 3055 3054 3054 3054 3053 3052 3052 3052 3053 3054 3054 3055 3055 3055 3054 3054 3054 3053 3052 3052 3052 3053 3054 3055 3056 3056 3057 3057 3058 3059 3059 3060 3060 3059 3059 3058 3058 3058 3057 3057 3056 3056 3055 3054 3054 3054 3055 3055 3056 3056 3057 3057 3058 3059 3060 3061 3062 3064 3064 3065 3065 3066 3066 3067 3067 3067 3066 3065
3062 3062 3061 3061 3061 3061 3060 3059 3057 3054 3053 3054 3055 3056 3057 3057 3055 3052 3051 3052 3051 3050 3050 3050 3049 3049 3050 3050 3050 3051 3052 3052 3052 3052 3052 3051 3050 3050 3051 3051 3052 3053 3054 3054 3055 3055 3056 3056 3057 3057 3057 3056 3056 3055 3054 3054 3053 3053 3052 3051 3050 3050 3050 3050 3050 3051 3052 3053 3054 3055 3056 3056 3057 3058 3059 3060 3060 3061 3061 3062 3063 3063 3063 3063 3062 3061
3059 3059 3057 3057 3058 3057 3056 3056 3054 3052 3050 3051 3052 3052 3052 3052 3050 3048 3048 3049 3048 3047 3047 3047 3046 3047 3047 3047 3047 3048 3049 3049 3049 3049 3049 3049 3048 3048 3048 3049 3050 3051 3052 3053 3053 3053 3053 3054 3054 3054 3054 3053 3052 3052 3051 3050 3050 3049 3048 3047 3046 3045 3045 3045 3046 3047 3048 3050 3051 3052 3052 3053 3054 3055 3056 3056 3057 3057 3058 3059 3059 3059 3059 3059 3058 3057
3054 3055 3054 3054 3054 3053 3051 3051 3050 3049 3049 3050 3050 3050 3049 3048 3047 3046 3045 3045 3046 3046 3045 3044 3044 3045 3045 3044 3044 3045 3046 3047 3046 3046 3047 3046 3046 3046 3046 3047 3048 3048 3049 3050 3050 3051 3051 3051 3051 3051 3050 3050 3049 3049 3048 3047 3047 3046 3045 3044 3043 3042 3041 3042 3043 3044 3045 3046 3047 3048 3049 3050 3051 3051 3052 3053 3054 3054 3055 3055 3056 3055 3055 3055 3054 3054
3050 3050 3050 3050 3050 3049 3047 3047 3048 3047 3047 3047 3047 3047 3047 3046 3046 3045 3044 3043 3043 3043 3042 3042 3042 3043 3043 3042 3041 3042 3043 3043 3043 3043 3043 3043 3043 3043 3044 3044 3045 3045 3046 3047 3047 3048 3048 3047 3047 3047 3047 3046 3046 3046 3046 3045 3044 3044 3043 3042 3040 3039 3039 3039 3040 3040 3042 3042 3043 3045 3046 3047 3047 3048 3049 3050 3051 3051 3052 3052 3052 3052 3052 3051 3051 3050
3046 3046 3047 3046 3046 3045 3044 3044 3046 3046 3045 3045 3044 3044 3044 3044 3043 3043 3042 3041 3041 3040 3040 3040 3040 3040 3041 3040 3040 3040 3040 3040 3040 3039 3039 3039 3040 3041 3041 3042 3042 3042 3043 3043 3044 3044 3044 3044 3044 3044 3044 3044 3044 3043 3043 3043 3042 3041 3040 3039 3038 3037 3037 3037 3037 3038 3039 3039 3040 3042 3043 3043 3044 3045 3046 3047 3047 3048 3048 3048 3048 3049 3048 3048 3048 3047
3043 3043 3043 3042 3042 3042 3041 3041 3042 3043 3043 3043 3042 3041 3042 3041 3040 3040 3039 3039 3039 3039 3038 3038 3038 3038 3039 3038 3038 3038 3038 3037 3037 3036 3035 3035 3037 3038 3038 3039 3039 3039 3040 3040 3040 3041 3041 3042 3042 3042 3042 3042 3041 3041 3041 3041 3040 3039 3038 3037 3036 3035 3035 3035 3035 3036 3036 3037 3038 3039 3040 3041 3042 3042 3043 3043 3044 3044 3044 3045 3045 3046 3046 3046 3045 3044
3040 3039 3039 3039 3038 3038 3037 3038 3040 3041 3040 3040 3039 3038 3039 3038 3037 3037 3037 3037 3037 3037 3037 3037 3036 3036 3036 3036 3035 3035 3035 3035 3034 3033 3032 3032 3033 3034 3034 3033 3034 3035 3036 3037 3037 3037 3038 3039 3040 3040 3040 3040 3039 3039 3039 3039 3038 3037 3036 3036 3035 3034 3034 3034 3034 3034 3034 3035 3035 3036 3036 3037 3038 3039 3040 3040 3040 3041 3041 3042 3043 3043 3043 3043 3042 3041
3036 3036 3036 3036 3034 3033 3034 3036 3037 3037 3035 3035 3035 3035 3035 3035 3034 3034 3034 3034 3034 3034 3034 3034 3034 3034 3033 3033 3032 3032 3032 3032 3031 3030 3030 3029 3029 3029 3029 3029 3031 3032 3033 3033 3034 3034 3035 3036 3036 3037 3038 3038 3038 3037 3038 3037 3037 3036 3035 3034 3034 3033 3033 3033 3033 3033 3033 3033 3033 3033 3034 3035 3035 3036 3037 3037 3038 3038 3039 3040 3040 3040 3040 3040 3039 3038
3032 3032 3033 3033 3030 3028 3030 3033 3034 3031 3030 3031 3032 3032 3031 3031 3030 3030 3030 3031 3031 3031 3031 3031 3031 3031 3030 3030 3030 3029 3028 3028 3028 3027 3027 3026 3026 3025 3025 3027 3028 3029 3030 3030 3031 3031 3032 3032 3033 3034 3034 3035 3035 3035 3036 3036 3035 3034 3034 3033 3033 3032 3032 3031 3031 3031 3031 3031 3031 3031 3032 3032 3033 3034 3034 3035 3035 3036 3036 3037 3037 3037 3037 3037 3035 3034
3028 3028 3029 3028 3026 3025 3026 3028 3029 3027 3025 3026 3027 3027 3028 3028 3027 3027 3027 3028 3028 3028 3028 3027 3027 3027 3027 3027 3027 3026 3025 3025 3024 3023 3023 3023 3023 3022 3022 3023 3024 3025 3026 3026 3027 3028 3028 3029 3029 3030 3031 3032 3032 3033 3033 3034 3033 3033 3032 3032 3031 3031 3030 3030 3030 3029 3029 3029 3029 3029 3030 3030 3031 3032 3032 3032 3033 3033 3033 3034 3034 3034 3034 3033 3032 3031